Temperature
18 19 19 19 22 23 23 23 23 23 23 23 22 22 23 24 24 22 19 18 17 17 15 15 14 14 14 14 13 13 13 13 13 12 12 12 12 12 12 12 12 12 12 12 12 12 12 12 12
18 19 19 21 22 22 23 23 23 24 23 21 21 21 22 23 20 19 19 18 17 16 15 14 14 14 14 13 13 13 13 12 12 12 12 12 12 11 11 11 11 11 11 11 12 12 11 12 12
18 19 20 22 22 23 23 24 24 23 21 21 22 22 23 22 19 18 19 18 17 16 15 14 14 14 13 13 13 13 12 12 12 12 11 11 11 11 11 11 11 11 11 11 11 11 11 12 12
18 19 21 22 22 23 23 24 23 22 21 21 22 22 21 19 19 19 19 18 16 15 15 14 14 13 13 13 13 13 12 12 12 11 11 11 11 11 11 11 11 11 11 11 11 11 11 11 11
18 20 21 21 22 23 23 23 22 23 23 22 22 23 22 19 20 19 19 18 16 15 14 14 14 13 13 13 13 12 12 12 11 11 11 11 11 11 11 11 11 11 10 10 10 11 11 11 11
19 21 21 22 22 23 23 22 22 23 23 22 22 23 21 20 19 19 18 17 16 15 14 14 14 13 13 13 13 12 12 12 11 11 11 11 11 11 11 11 10 10 10 10 10 10 10 10 10
20 21 21 22 22 22 23 21 22 23 23 22 22 23 21 19 19 19 17 16 15 15 14 14 13 13 13 13 12 12 12 12 11 11 11 11 11 10 10 10 10 10 10 10 10 10 10 10 10
19 21 21 21 22 22 22 21 21 22 23 21 21 23 22 19 19 18 17 16 15 15 14 14 13 13 13 12 12 12 12 11 11 11 11 11 11 10 10 10 10 10 10 10 10 10 10 10 10
18 20 20 21 21 22 22 21 21 20 21 20 20 21 20 19 19 18 17 16 15 15 14 14 13 13 12 12 12 12 12 11 11 11 11 11 10 10 10 10 10 10 10 10 10 10 10 10 10
18 19 20 22 22 22 21 21 21 20 21 21 20 19 19 19 19 18 18 17 17 16 15 14 13 13 12 12 12 11 11 11 11 11 10 10 10 10 10 10 10 10 10 10 10 10 10 10 9
19 20 21 21 20 20 21 21 20 22 22 22 22 20 19 19 18 18 18 18 18 17 16 15 14 13 13 12 12 12 11 11 11 10 10 10 10 10 10 10 9 9 9 9 9 9 9 9 9
19 19 20 20 19 19 20 20 20 21 22 21 21 20 20 19 18 18 18 18 17 17 16 16 15 14 13 12 12 12 12 11 11 11 11 10 10 10 10 10 9 9 9 9 9 9 9 9 9
18 19 19 19 18 19 19 20 20 20 20 20 20 19 19 19 19 19 18 17 17 17 17 16 15 15 14 13 12 12 12 12 12 11 11 10 10 10 10 10 9 9 9 9 9 9 9 9 9
19 19 19 18 18 18 19 20 19 20 20 19 19 19 19 19 19 18 18 17 17 17 17 17 16 15 14 13 13 12 12 12 11 11 11 11 10 10 10 10 10 9 9 9 9 9 9 9 9
17 18 18 18 18 19 19 19 20 20 19 19 19 19 19 19 18 18 19 19 19 18 17 17 17 15 15 14 13 13 12 12 12 11 11 11 11 10 10 10 10 9 9 9 9 9 9 9 9
17 17 17 19 18 18 18 19 21 20 19 20 20 20 19 18 19 19 19 19 18 18 17 17 17 16 15 14 14 13 13 12 12 12 11 11 11 10 10 10 10 9 9 9 9 9 9 9 9
16 17 18 19 18 18 19 19 21 20 19 20 20 20 19 19 18 19 19 19 19 18 18 17 17 17 16 15 14 13 13 12 12 12 11 11 11 10 10 10 10 10 9 9 9 9 9 9 9
16 17 18 18 19 18 18 19 21 19 19 20 20 20 19 19 19 19 19 19 19 18 18 17 17 16 16 14 14 13 13 13 12 12 12 11 11 11 10 10 10 10 9 9 9 9 9 9 9
17 17 18 18 18 18 18 19 20 20 19 19 20 20 19 19 19 19 19 19 19 18 18 17 17 16 15 15 14 14 13 13 13 13 12 12 11 11 10 10 10 10 10 9 9 9 9 9 9
16 16 17 17 17 17 18 19 20 20 19 19 19 20 19 19 19 19 19 19 19 19 18 18 17 17 16 16 15 15 14 14 13 13 12 12 11 11 11 10 10 10 10 9 9 9 9 9 9
15 16 16 17 16 16 17 18 19 20 19 18 18 19 19 19 19 19 19 19 19 19 19 18 18 17 17 16 15 14 13 13 12 12 13 12 12 11 11 11 10 10 10 9 9 9 9 9 9
14 16 16 16 16 16 16 17 19 20 19 19 19 19 19 19 18 19 19 19 19 19 19 18 18 17 17 16 15 14 14 14 14 14 13 13 12 11 11 11 10 10 10 10 9 9 9 9 9
14 15 15 15 15 15 16 16 19 19 19 20 20 19 19 18 18 18 18 19 19 19 19 19 18 17 17 16 15 15 14 14 13 13 13 12 12 11 11 11 10 10 10 9 9 9 9 9 8
14 14 13 14 14 14 16 16 18 19 20 20 20 20 19 18 18 18 18 18 18 18 18 18 18 18 17 16 15 15 14 14 13 13 13 12 12 12 11 11 10 10 10 10 9 9 9 9 8
13 13 12 12 12 14 16 16 18 20 20 20 20 20 19 18 17 17 18 18 18 18 18 18 18 17 17 16 16 15 15 14 13 13 13 12 12 12 12 11 11 10 10 10 9 9 9 9 8
13 13 13 14 15 16 15 15 19 19 19 18 18 18 17 17 17 17 18 18 18 18 18 18 18 17 17 17 16 15 15 14 13 13 13 12 12 12 12 11 11 10 10 9 9 9 9 8 8
13 13 14 14 14 15 15 16 18 18 17 17 17 16 16 16 16 17 17 17 18 18 18 18 18 17 17 17 16 15 14 14 13 13 12 12 12 12 11 11 10 10 10 9 9 9 9 8 8
13 13 13 12 13 14 16 17 18 18 18 18 18 17 17 16 16 16 17 17 17 17 17 17 17 17 17 16 16 15 14 14 13 13 12 12 12 11 11 10 10 10 9 9 9 9 8 8 8
12 12 12 13 14 15 16 17 18 19 19 19 18 18 17 16 16 16 16 17 17 17 17 17 17 16 16 16 15 15 14 13 13 12 12 12 11 11 10 10 10 9 9 9 9 8 8 8 8
13 12 12 12 13 14 16 18 18 17 18 18 18 17 16 15 15 16 16 16 16 16 16 16 16 16 16 15 15 14 14 13 13 12 12 11 11 10 10 10 9 9 9 9 8 8 8 8 7
Wind_Speed
2 3 4 3 5 5 7 5 5 6 5 4 5 4 4 3 1 2 4 12 15 18 20 21 20 18 17 16 15 14 13 12 12 12 11 11 11 11 12 12 12 13 13 13 13 14 14 14 14
2 3 4 4 6 8 7 7 8 7 5 5 5 5 4 3 1 4 8 13 16 19 20 20 21 19 18 17 16 15 14 13 12 12 11 11 11 11 12 12 12 12 12 12 13 13 13 13 13
3 4 4 5 7 8 5 6 7 6 6 6 6 4 2 3 4 6 9 17 17 18 19 20 21 19 18 17 16 15 14 13 12 12 11 11 11 11 11 11 11 11 11 11 11 12 12 12 12
4 4 5 8 11 9 5 4 6 8 6 5 5 4 3 2 3 6 14 17 18 18 18 20 20 19 18 18 16 15 14 13 13 12 11 11 10 10 10 11 11 11 10 10 10 11 11 11 11
4 5 8 11 12 8 7 5 7 9 8 7 7 5 6 4 4 10 16 17 18 17 17 20 20 19 19 18 16 15 14 14 13 12 11 11 10 10 10 10 10 10 10 10 10 10 10 10 10
5 6 10 13 13 9 7 7 9 10 8 7 7 6 5 6 8 12 16 16 16 16 16 19 20 19 18 18 16 16 15 14 13 12 11 11 11 11 10 9 9 9 9 8 8 8 8 8 8
8 8 12 13 12 10 8 8 11 11 10 9 7 7 6 8 9 13 15 15 15 16 15 17 19 18 18 17 17 16 15 14 13 12 12 11 11 10 9 8 8 8 8 7 7 7 7 7 7
6 6 12 13 13 11 7 7 7 11 9 5 7 7 6 11 12 14 14 14 14 15 15 15 17 17 17 17 17 17 15 14 13 12 12 11 11 10 8 8 7 7 6 6 6 6 7 6 6
5 10 14 14 12 9 8 9 6 4 5 5 5 1 4 13 15 15 14 13 14 15 15 15 15 15 15 15 17 17 15 14 14 13 13 11 9 9 8 7 6 5 5 5 5 6 6 4 5
9 14 17 10 10 8 9 9 9 8 9 8 7 4 7 13 16 18 18 18 18 18 18 15 15 15 15 13 15 14 13 14 13 12 12 9 7 7 6 8 5 5 5 4 4 4 3 0 2
11 15 13 12 10 8 8 8 8 10 11 12 12 11 11 14 16 17 19 19 20 19 18 17 16 15 15 12 13 11 11 12 11 11 11 9 7 7 6 6 6 5 4 3 3 2 1 2 2
12 14 12 11 10 9 10 8 9 14 12 8 9 10 13 16 18 19 19 19 18 18 19 18 17 15 15 14 12 11 10 10 10 11 11 9 7 6 6 5 4 4 3 2 1 0 1 1 1
17 13 12 11 10 11 10 12 11 13 12 5 5 10 14 16 18 18 17 16 17 18 19 19 18 17 15 14 11 11 11 11 11 11 12 11 8 7 6 5 5 4 3 3 2 1 0 1 2
13 15 13 12 13 11 12 14 12 13 11 10 9 12 14 16 17 16 16 17 19 19 19 19 20 18 17 14 13 12 12 12 11 11 12 12 9 8 6 6 5 4 4 3 2 2 1 1 2
10 12 14 14 14 12 10 17 19 15 11 13 13 13 14 15 15 17 18 19 19 19 19 20 20 19 18 17 15 12 12 12 11 12 13 13 12 10 8 6 6 5 5 4 3 2 2 2 2
10 14 16 14 15 13 13 20 16 14 14 16 15 15 14 14 16 16 17 17 17 17 19 19 17 19 19 17 15 13 13 13 12 12 13 14 14 12 9 7 6 7 6 5 4 3 2 2 2
13 17 20 16 14 12 16 18 13 11 14 16 16 15 14 14 15 15 15 16 17 18 19 20 20 20 19 18 15 13 13 13 12 13 13 14 15 14 11 8 8 8 7 5 4 4 3 2 2
17 19 19 19 12 16 19 20 14 10 13 16 16 15 14 14 15 15 14 15 16 17 18 19 20 20 18 15 13 11 12 11 12 12 13 15 15 15 13 9 9 9 7 6 6 5 3 2 2
16 18 20 16 11 13 19 21 19 16 14 15 16 15 15 15 14 12 12 13 14 16 18 19 20 20 17 14 14 13 13 12 11 12 15 16 15 15 13 9 9 9 8 8 8 6 5 4 3
19 18 18 13 10 11 16 21 19 19 19 17 17 17 16 15 13 12 11 12 14 16 18 19 20 20 20 16 15 13 13 11 11 11 13 16 16 16 13 12 10 9 8 9 8 7 5 4 3
22 22 19 13 8 9 11 17 20 19 18 18 18 18 17 15 15 13 13 13 13 15 17 17 20 20 21 19 13 11 10 9 10 12 11 14 16 16 15 14 12 10 10 9 9 9 8 6 4
22 20 18 15 12 10 10 12 17 17 18 19 20 19 18 17 15 14 13 13 14 14 14 16 18 19 19 19 17 17 14 13 14 12 12 13 15 15 15 14 13 11 10 9 9 9 8 7 5
16 13 15 15 14 13 12 12 13 13 18 21 20 19 18 17 16 15 14 13 12 12 13 14 16 17 19 19 19 19 16 14 12 12 13 13 13 14 14 14 12 11 10 10 10 9 9 8 7
11 9 7 8 10 15 19 16 14 14 19 18 18 17 16 15 14 13 12 11 10 10 11 13 15 16 17 19 19 19 19 16 14 14 13 12 10 11 14 13 12 12 10 11 10 10 10 9 8
15 12 8 10 11 13 14 15 15 13 14 16 16 16 15 14 13 12 12 11 11 12 12 13 15 15 17 18 18 19 18 17 16 15 14 13 10 10 13 13 12 11 11 10 10 10 10 10 9
23 20 13 10 11 11 11 16 13 11 11 12 13 12 12 12 12 11 11 11 11 12 13 14 15 15 16 17 17 16 16 13 12 14 12 13 11 11 13 13 12 12 11 10 10 9 9 8 9
18 20 15 8 6 9 10 11 12 10 12 13 13 12 13 12 11 10 10 10 10 11 12 14 14 14 15 15 15 15 15 14 13 13 13 11 10 9 12 12 12 11 11 11 10 8 9 8 8
15 14 10 11 9 11 12 15 11 13 17 16 14 14 13 11 10 9 8 8 8 9 10 12 13 13 14 14 13 11 13 14 13 12 12 12 11 10 11 11 11 11 11 11 10 8 8 9 8
15 16 12 11 10 10 11 10 8 12 13 15 15 14 12 11 10 8 7 7 8 8 9 11 12 12 12 13 13 13 12 12 12 11 12 11 10 11 11 11 11 11 11 10 10 9 9 9 8
17 17 17 14 11 12 11 8 4 7 8 9 11 10 9 9 8 7 7 8 8 9 9 10 11 12 12 12 12 12 12 12 12 12 11 11 11 10 10 10 10 10 10 10 10 10 9 9 9
Wind_Direction
218 199 198 214 217 221 225 202 193 172 176 165 160 182 202 200 232 58 108 153 149 153 156 157 155 153 149 144 140 136 131 126 121 115 111 107 101 96 94 91 88 85 83 81 79 76 74 73 72
218 201 210 223 227 218 212 202 198 185 149 139 159 178 189 186 81 106 140 154 153 154 156 158 155 154 150 146 142 139 135 131 126 121 117 113 107 102 97 93 90 87 85 83 81 79 76 74 72
194 226 221 215 225 224 206 191 191 161 156 169 166 188 203 140 136 140 146 155 155 156 158 154 157 156 154 150 147 143 140 137 132 128 123 117 112 107 101 96 94 90 88 86 84 82 78 77 75
207 203 219 228 224 226 232 171 165 163 170 193 183 171 163 85 120 133 145 157 157 158 160 157 161 159 157 154 150 148 146 142 137 133 129 123 117 111 105 101 98 95 92 89 87 83 80 78 77
221 218 217 224 228 228 230 220 188 186 181 185 197 179 153 119 112 138 153 160 161 160 161 160 165 162 160 158 154 152 150 147 143 139 135 129 123 117 111 105 101 99 96 92 89 85 81 79 75
207 218 222 223 222 224 224 208 199 206 196 186 196 186 151 131 146 151 158 164 164 162 164 162 167 166 164 161 158 156 155 152 148 145 140 135 130 124 118 112 107 102 98 94 89 85 82 79 75
220 218 230 229 226 224 219 199 208 207 204 195 192 188 157 152 150 156 161 164 166 166 168 168 170 171 168 165 161 160 159 156 153 149 142 138 134 130 125 119 112 106 100 94 86 83 82 76 73
230 223 229 226 225 225 203 187 211 211 208 173 192 203 176 155 149 155 161 165 169 172 175 175 175 173 172 170 165 163 163 160 156 150 142 139 138 135 131 131 116 110 105 96 86 83 81 76 70
216 226 226 220 221 219 192 194 191 198 186 175 196 206 89 137 148 155 162 171 176 181 183 182 180 178 177 174 167 167 166 163 159 154 146 153 156 149 146 120 116 114 109 98 89 84 82 85 89
209 226 228 224 223 220 196 203 187 187 199 196 190 157 135 152 162 169 176 180 184 187 187 186 185 182 180 175 173 176 174 172 176 169 167 172 165 153 144 126 122 116 114 110 93 89 108 145 72
214 229 231 228 225 226 211 208 199 208 214 214 208 187 165 173 181 187 190 190 190 188 187 190 188 185 183 180 181 179 178 179 182 178 176 175 169 162 165 161 158 157 163 152 133 169 73 35 32
223 229 230 228 220 221 223 217 213 221 227 227 224 189 176 186 194 198 198 196 191 191 192 192 190 189 189 187 186 185 183 183 184 184 184 180 178 179 175 178 172 177 178 170 186 232 57 13 10
225 228 226 230 225 226 230 229 231 231 234 235 208 185 194 199 204 206 205 199 195 195 194 195 194 192 191 191 191 192 191 189 188 186 190 189 187 187 183 187 184 191 191 195 210 227 274 319 338
225 227 228 228 228 227 232 238 235 237 231 224 211 206 208 209 210 206 205 204 201 200 197 195 196 196 193 194 195 196 196 194 193 191 195 195 195 193 192 196 197 201 204 209 226 234 264 295 312
224 227 231 229 226 224 230 242 235 235 228 227 225 223 219 219 215 213 209 208 205 202 198 195 196 197 197 198 199 198 198 196 198 197 198 199 201 199 199 204 203 204 203 209 222 226 257 282 290
209 222 230 224 220 218 219 244 233 226 226 231 232 230 225 223 221 220 217 214 209 203 199 197 194 198 199 199 199 200 200 199 202 201 201 203 204 204 204 207 208 204 203 210 219 233 247 262 277
211 222 225 223 212 212 219 245 237 222 223 231 233 232 229 227 225 225 220 215 210 204 200 197 196 199 199 199 199 201 202 202 205 204 204 204 206 206 208 211 209 203 205 210 212 225 244 259 270
210 219 224 224 209 213 226 239 237 226 226 233 234 232 231 231 230 226 220 215 209 205 201 198 197 199 197 196 198 200 204 206 207 207 208 206 206 206 209 210 210 204 205 208 209 212 217 240 252
223 223 225 227 217 218 232 242 242 237 232 236 235 233 232 234 235 226 217 210 204 202 200 199 198 197 194 193 195 198 202 204 206 209 210 208 208 206 206 207 207 205 209 210 210 208 211 217 223
224 227 230 231 220 230 244 248 246 242 236 235 235 234 234 234 230 222 213 205 202 201 200 200 199 196 195 196 197 200 201 205 207 207 211 210 209 206 205 206 205 204 208 208 206 202 209 206 211
222 225 227 227 215 226 254 255 243 238 236 235 236 237 236 233 231 224 213 207 202 203 201 200 200 198 197 196 194 192 194 199 202 205 208 210 209 206 205 207 206 204 205 207 204 203 208 211 205
224 224 226 225 227 230 225 256 243 230 230 230 231 231 232 231 230 227 221 212 206 205 201 201 199 198 196 194 195 192 195 200 205 204 205 206 207 206 206 206 205 203 204 205 203 203 207 209 210
222 216 220 225 233 244 229 246 253 227 232 230 227 227 227 228 227 224 221 216 210 202 197 198 197 197 196 196 198 199 204 207 205 202 203 204 204 205 205 205 204 204 204 205 200 199 204 208 215
200 190 207 224 230 240 230 232 255 227 229 228 224 222 223 223 222 221 218 212 205 195 190 191 193 195 194 196 199 202 205 206 201 199 200 202 201 203 204 203 203 205 204 204 201 200 204 207 213
196 186 193 203 215 233 218 226 246 237 228 228 224 221 219 217 215 212 208 203 198 191 187 187 188 191 192 195 200 203 206 206 205 202 203 200 200 201 203 201 203 204 204 202 198 199 202 206 208
200 200 204 208 217 222 206 227 240 231 229 232 234 228 221 217 213 210 207 201 195 191 187 186 187 188 189 193 198 201 203 205 207 207 204 202 203 203 201 200 201 202 200 197 195 198 202 204 208
200 211 221 234 238 229 217 232 247 232 229 226 224 221 218 214 210 207 202 198 193 188 187 186 185 186 188 192 195 198 200 202 205 205 205 205 204 201 198 197 198 199 198 197 195 201 202 201 207
212 199 203 213 214 228 230 231 231 209 212 211 211 212 213 210 204 200 195 190 188 186 184 184 185 185 186 188 191 193 196 199 201 201 202 202 200 194 192 194 196 196 197 197 195 201 202 202 206
196 199 203 208 221 225 235 234 219 215 207 205 208 208 208 204 200 195 186 181 177 175 177 181 182 183 184 186 187 189 192 195 198 200 201 200 197 193 192 192 193 194 195 195 197 201 197 201 205
205 202 198 203 208 222 238 240 176 217 219 215 212 208 205 202 194 184 176 172 172 175 176 179 181 182 183 183 185 187 188 190 193 197 198 195 193 192 192 191 192 192 193 194 198 201 201 203 208
Height
1521 1522 1523 1525 1523 1519 1515 1512 1511 1514 1515 1517 1518 1519 1518 1518 1519 1524 1524 1523 1525 1527 1530 1532 1535 1538 1539 1541 1542 1542 1543 1544 1544 1544 1544 1545 1545 1545 1545 1544 1544 1544 1544 1543 1543 1543 1542 1542 1541
1521 1522 1524 1524 1518 1518 1514 1510 1511 1511 1515 1518 1519 1519 1519 1519 1521 1521 1521 1523 1525 1528 1530 1533 1535 1538 1540 1541 1542 1543 1543 1544 1544 1545 1545 1545 1546 1546 1545 1545 1545 1545 1545 1544 1544 1544 1543 1543 1542
1521 1522 1524 1518 1515 1512 1510 1507 1509 1513 1516 1517 1518 1519 1519 1519 1521 1521 1521 1523 1525 1528 1531 1533 1535 1538 1540 1541 1542 1543 1544 1544 1545 1546 1546 1546 1546 1546 1546 1546 1546 1546 1545 1545 1545 1545 1544 1544 1543
1521 1523 1521 1515 1512 1508 1507 1507 1510 1513 1516 1517 1517 1517 1519 1519 1520 1521 1521 1523 1526 1528 1531 1533 1535 1538 1540 1541 1543 1543 1544 1545 1545 1546 1547 1547 1547 1547 1547 1547 1546 1546 1546 1546 1546 1546 1545 1545 1544
1520 1519 1516 1513 1509 1506 1507 1509 1511 1511 1513 1515 1516 1515 1518 1519 1519 1520 1521 1524 1526 1529 1531 1533 1535 1538 1540 1541 1543 1544 1545 1545 1546 1547 1547 1547 1547 1547 1547 1547 1547 1547 1547 1547 1547 1547 1546 1546 1546
1519 1515 1512 1509 1505 1505 1506 1509 1510 1510 1511 1514 1515 1515 1517 1518 1518 1520 1522 1524 1527 1529 1531 1533 1535 1538 1540 1541 1543 1544 1545 1545 1546 1547 1547 1548 1548 1548 1548 1548 1548 1548 1548 1548 1548 1548 1547 1547 1547
1516 1511 1507 1504 1504 1504 1505 1507 1508 1508 1509 1511 1513 1513 1515 1517 1518 1520 1522 1524 1527 1529 1531 1534 1535 1537 1539 1541 1542 1544 1545 1546 1546 1547 1548 1548 1548 1549 1549 1549 1549 1549 1549 1549 1549 1548 1548 1548 1547
1512 1509 1505 1503 1503 1502 1503 1506 1507 1507 1508 1510 1512 1511 1513 1516 1517 1519 1521 1524 1526 1528 1531 1533 1536 1537 1539 1541 1542 1543 1545 1546 1546 1547 1548 1548 1549 1549 1549 1549 1549 1549 1549 1549 1549 1549 1549 1548 1548
1510 1508 1502 1500 1500 1499 1502 1504 1506 1507 1508 1509 1510 1511 1512 1513 1515 1517 1519 1522 1524 1526 1529 1532 1534 1537 1539 1540 1541 1543 1544 1545 1546 1547 1548 1548 1550 1550 1550 1550 1550 1550 1550 1550 1550 1550 1549 1549 1548
1506 1502 1496 1496 1497 1497 1500 1501 1503 1505 1505 1507 1508 1509 1509 1511 1513 1515 1516 1518 1520 1523 1526 1529 1532 1535 1537 1539 1541 1542 1544 1545 1546 1547 1548 1549 1550 1550 1550 1550 1550 1550 1550 1550 1550 1550 1550 1549 1550
1499 1495 1494 1496 1497 1498 1498 1500 1501 1501 1501 1502 1504 1506 1507 1509 1511 1513 1514 1516 1518 1521 1523 1526 1529 1532 1535 1537 1539 1541 1543 1544 1545 1547 1547 1548 1549 1549 1550 1550 1550 1550 1550 1551 1550 1551 1550 1550 1549
1495 1493 1494 1494 1496 1497 1497 1497 1498 1498 1498 1500 1501 1503 1504 1506 1508 1509 1512 1514 1517 1519 1521 1524 1526 1529 1532 1535 1537 1539 1541 1542 1544 1545 1546 1547 1548 1549 1549 1550 1550 1550 1551 1551 1551 1550 1550 1550 1549
1491 1490 1492 1493 1494 1495 1496 1495 1495 1495 1496 1497 1498 1500 1501 1503 1505 1507 1510 1512 1514 1516 1518 1521 1524 1526 1529 1532 1534 1536 1538 1540 1542 1543 1544 1546 1547 1548 1548 1549 1549 1550 1550 1550 1550 1550 1550 1549 1549
1487 1489 1489 1491 1492 1493 1493 1492 1493 1490 1493 1494 1495 1496 1498 1499 1501 1503 1505 1507 1509 1512 1514 1517 1520 1523 1526 1528 1531 1534 1536 1538 1540 1541 1542 1544 1545 1546 1547 1548 1548 1549 1549 1549 1550 1550 1549 1549 1548
1487 1487 1486 1486 1488 1489 1491 1487 1485 1487 1490 1490 1491 1493 1494 1495 1497 1498 1500 1502 1505 1507 1511 1513 1516 1520 1522 1525 1528 1531 1533 1535 1537 1539 1540 1542 1543 1544 1545 1546 1547 1547 1548 1548 1548 1548 1548 1548 1547
1483 1484 1483 1479 1483 1485 1489 1479 1477 1482 1485 1485 1486 1488 1489 1490 1491 1493 1495 1498 1500 1503 1506 1509 1512 1515 1518 1521 1524 1527 1530 1532 1534 1536 1538 1539 1541 1542 1543 1544 1545 1545 1546 1546 1547 1547 1547 1547 1546
1479 1477 1475 1475 1477 1480 1481 1475 1473 1477 1479 1480 1481 1482 1484 1485 1486 1488 1490 1492 1495 1498 1501 1504 1507 1511 1514 1518 1521 1523 1526 1528 1531 1532 1534 1536 1538 1539 1541 1542 1543 1543 1544 1544 1545 1545 1545 1545 1545
1470 1469 1469 1469 1471 1475 1474 1470 1470 1473 1475 1475 1475 1477 1478 1479 1481 1483 1485 1487 1490 1492 1496 1499 1502 1506 1510 1513 1516 1519 1522 1524 1526 1528 1530 1533 1534 1536 1538 1539 1540 1541 1541 1542 1542 1543 1543 1543 1543
1462 1464 1465 1465 1468 1472 1469 1466 1465 1468 1470 1470 1470 1471 1472 1474 1476 1478 1479 1481 1484 1487 1490 1493 1496 1500 1504 1507 1510 1513 1515 1518 1521 1524 1526 1529 1531 1532 1534 1535 1537 1537 1538 1539 1540 1540 1541 1541 1541
1463 1464 1464 1464 1467 1469 1465 1462 1459 1461 1462 1464 1465 1465 1467 1468 1470 1472 1473 1475 1478 1480 1484 1487 1490 1494 1497 1500 1504 1508 1511 1514 1517 1519 1522 1524 1526 1528 1530 1532 1533 1534 1535 1536 1537 1537 1538 1538 1538
1460 1460 1462 1464 1466 1468 1467 1459 1453 1452 1455 1457 1458 1459 1460 1462 1464 1466 1468 1469 1472 1474 1477 1480 1484 1487 1491 1495 1499 1503 1506 1509 1511 1513 1516 1519 1521 1524 1525 1528 1529 1530 1531 1532 1533 1534 1535 1535 1536
1456 1456 1459 1463 1466 1463 1465 1457 1442 1442 1446 1448 1450 1452 1453 1455 1458 1459 1462 1464 1465 1468 1472 1475 1478 1482 1485 1489 1492 1495 1498 1501 1504 1507 1510 1513 1516 1518 1521 1523 1525 1526 1527 1528 1530 1531 1532 1532 1532
1451 1454 1458 1461 1462 1462 1460 1459 1438 1437 1438 1437 1440 1443 1445 1448 1450 1453 1455 1457 1460 1462 1465 1469 1472 1475 1479 1482 1486 1489 1493 1496 1500 1503 1505 1508 1511 1513 1516 1518 1520 1521 1523 1524 1526 1527 1528 1528 1529
1451 1456 1460 1461 1462 1463 1451 1454 1436 1428 1426 1427 1431 1435 1438 1441 1444 1446 1448 1451 1454 1456 1459 1462 1466 1469 1473 1476 1480 1483 1487 1491 1494 1496 1499 1502 1505 1507 1510 1512 1515 1517 1518 1520 1521 1523 1524 1524 1525
1447 1453 1461 1462 1461 1448 1441 1444 1427 1417 1419 1422 1425 1428 1432 1435 1437 1440 1442 1445 1447 1450 1453 1457 1460 1463 1467 1471 1474 1478 1481 1485 1488 1491 1494 1496 1499 1501 1504 1507 1509 1511 1513 1515 1517 1518 1519 1520 1521
1436 1440 1443 1444 1440 1433 1440 1433 1416 1414 1417 1419 1422 1424 1427 1429 1431 1434 1436 1439 1442 1445 1448 1451 1454 1458 1462 1465 1469 1472 1476 1479 1482 1486 1488 1491 1493 1496 1499 1501 1504 1506 1508 1510 1512 1513 1514 1515 1516
1431 1433 1431 1435 1433 1429 1426 1419 1413 1412 1413 1415 1417 1420 1421 1424 1426 1428 1431 1433 1436 1439 1442 1446 1450 1453 1457 1460 1464 1467 1470 1474 1477 1480 1483 1486 1488 1491 1494 1496 1499 1501 1503 1505 1507 1508 1509 1510 1511
1423 1426 1434 1437 1435 1429 1416 1413 1406 1403 1404 1407 1411 1414 1416 1419 1421 1423 1426 1428 1431 1435 1438 1442 1445 1449 1452 1456 1459 1462 1465 1469 1472 1475 1478 1481 1483 1486 1489 1491 1493 1496 1498 1500 1502 1503 1504 1505 1506
1422 1426 1427 1427 1423 1419 1414 1403 1393 1394 1396 1400 1404 1407 1411 1414 1416 1419 1421 1424 1427 1430 1434 1437 1441 1444 1448 1451 1454 1458 1461 1464 1467 1470 1473 1476 1479 1481 1484 1486 1488 1491 1493 1495 1496 1498 1499 1500 1500
1411 1413 1418 1422 1420 1413 1405 1399 1391 1393 1395 1398 1400 1404 1408 1411 1413 1415 1418 1421 1423 1426 1430 1433 1436 1440 1443 1447 1450 1453 1457 1460 1462 1465 1468 1471 1474 1477 1479 1482 1484 1486 1488 1489 1491 1492 1494 1494 1495